User: anonymous   Login
Location: Bojarzin Observatory
(39.7980°N, 89.7627°W)
Time: 16:44:52
(UTC-05:00)
Language:

ISS - Orbit

View from above orbital plane
View from above orbital plane
View from above satellite
View from above satellite

Ground track
Ground track

The orbit data is extracted from the following two-line orbital elements,

1 25544U 98067A   16242.56062302  .00002466  00000-0  44146-4 0  9990
2 25544  51.6455  51.9049 0002958 254.1723 215.3452 15.54344542 16404
Epoch (UTC): 29 August 2016 13:27:17
Eccentricity: 0.0002958
inclination: 51.6455°
perigee height: 402 km
apogee height: 406 km
right ascension of ascending node: 51.9049°
argument of perigee: 254.1723°
revolutions per day: 15.54344542
mean anomaly at epoch: 215.3452°
orbit number at epoch: 1640

The dashed part of the orbit path shows where the satellite is in the earth's shadow,  

DLR